Theta_e
318 317 317 316 315 315 315 315 315 314 314 314 314 315 316 316 315 297 294 303 309 317 315 299 299 298 298 295 296 294 282 277 280 282 284 290 288 293 294 290 291 290 288 292 296
317 317 316 315 315 315 315 315 315 315 314 313 314 315 316 315 302 290 305 313 314 315 302 294 293 296 290 292 292 287 280 281 286 287 286 290 291 290 289 288 286 287 291 294 295
317 317 316 315 314 315 315 315 315 315 314 314 313 314 317 309 293 288 310 311 312 311 301 297 295 295 291 290 289 288 282 287 288 290 292 292 291 292 286 283 285 285 288 291 293
316 317 316 315 314 314 315 315 315 315 314 314 314 313 316 299 283 290 310 309 310 303 296 295 293 288 288 286 290 284 289 289 291 292 291 291 292 288 288 286 288 289 290 290 291
316 316 315 315 314 314 313 314 314 315 312 312 312 314 303 290 286 295 307 303 297 297 295 293 290 288 285 286 288 286 287 290 291 292 293 294 290 290 287 289 291 290 290 289 289
316 316 316 315 314 313 313 314 314 314 314 312 312 315 298 287 293 295 296 296 296 295 294 293 291 292 287 287 285 288 288 288 290 291 292 291 288 288 288 289 288 289 287 288 289
315 316 315 314 313 312 312 313 313 314 314 312 312 304 295 286 292 294 296 294 296 295 293 295 295 291 287 286 291 289 284 287 288 290 289 291 286 285 288 289 287 287 286 287 288
315 315 315 313 312 311 312 312 312 313 313 312 311 299 288 294 293 294 295 294 296 298 297 297 296 292 288 289 287 284 283 277 286 289 290 288 278 284 288 287 285 285 285 286 286
314 314 314 312 311 311 311 310 311 308 310 311 298 294 286 299 291 293 293 291 293 295 297 299 295 288 287 281 277 279 272 277 281 289 289 285 280 286 288 286 284 284 284 284 285
313 314 313 311 310 309 308 308 308 305 303 299 296 288 290 288 291 292 292 293 290 292 292 292 286 280 279 278 269 273 273 277 278 284 286 284 282 284 286 284 283 283 283 283 283
313 313 311 309 309 309 303 297 295 292 292 287 287 289 288 290 291 289 291 290 290 289 282 286 278 274 278 279 280 279 277 277 279 286 283 283 280 283 285 283 281 282 281 282 282
312 312 308 307 308 308 303 295 293 294 287 291 290 289 291 290 286 289 292 287 286 282 283 281 274 280 283 283 280 279 277 275 279 284 282 283 280 281 283 281 283 282 281 281 281
311 309 307 307 307 302 297 296 301 300 288 288 290 288 287 289 284 285 288 287 283 281 280 275 278 285 283 281 278 277 276 275 276 282 285 282 276 275 283 282 283 284 283 282 281
310 305 305 306 301 297 294 298 300 301 288 286 285 287 288 288 285 289 290 286 284 279 281 278 282 282 280 279 279 275 281 280 279 277 269 282 268 275 278 278 279 281 281 280 281
308 304 304 305 295 293 295 299 300 299 284 284 285 291 287 285 284 286 291 288 280 280 280 276 278 279 278 278 281 277 281 280 281 276 279 277 269 269 276 273 276 279 280 280 281
308 303 302 299 297 296 299 300 299 288 284 281 285 284 283 284 284 288 288 289 287 281 281 279 284 282 280 282 283 281 280 281 280 276 266 271 270 269 267 270 275 278 279 279 281
305 304 299 299 294 299 301 298 288 284 285 281 281 284 282 280 282 283 279 277 274 276 272 278 279 282 283 277 280 278 271 260 263 263 263 273 271 270 272 275 273 275 277 279 280
304 302 300 298 299 300 299 292 283 288 281 283 283 282 279 280 279 282 280 277 279 277 272 272 271 278 282 278 274 275 272 262 258 260 266 277 265 268 277 278 276 278 278 279 279
302 299 297 297 300 299 294 285 287 287 284 281 281 279 278 279 279 279 278 277 278 278 274 269 274 280 282 282 277 274 267 275 263 265 267 272 273 276 279 276 276 276 276 276 278
299 296 293 298 299 297 289 288 287 284 283 283 279 280 277 277 278 278 276 279 278 281 279 273 270 277 281 282 280 276 277 266 264 258 256 267 268 267 271 272 274 274 275 276 278
299 292 293 298 298 292 286 287 282 284 286 283 281 280 278 278 279 277 276 278 281 280 280 276 270 274 278 273 271 272 266 271 270 267 258 262 266 269 267 266 268 272 274 275 276
298 288 294 296 288 286 286 283 284 282 285 284 282 281 279 278 278 277 276 277 283 281 275 277 270 266 270 277 278 275 273 271 263 261 262 264 267 276 270 268 265 270 273 275 275
289 286 294 293 285 284 281 281 284 281 282 281 279 282 281 278 276 277 276 282 282 280 275 276 268 264 265 270 275 273 274 273 268 262 258 260 266 277 273 269 269 266 271 275 275
289 284 286 288 286 285 281 281 280 283 282 283 280 280 278 276 278 276 276 280 282 282 284 280 266 265 265 265 267 264 267 273 268 261 258 263 266 271 272 270 271 269 269 272 274
295 287 288 281 283 285 286 283 279 278 282 283 278 279 279 275 276 275 277 277 280 283 278 274 266 264 270 273 273 271 265 265 262 267 263 263 263 268 269 267 268 264 267 273 274
290 288 288 286 287 286 287 282 281 279 280 279 279 280 279 277 278 275 276 276 276 277 273 273 270 269 265 274 273 271 273 272 269 272 270 269 269 273 272 271 269 265 266 269 272
293 294 293 287 285 285 285 285 283 282 282 283 282 279 278 278 280 280 280 280 278 274 270 268 268 266 264 271 264 265 264 268 269 267 269 267 270 273 271 274 270 267 264 265 269
Wind_Speed
9 8 8 8 8 8 8 8 7 7 8 9 10 11 13 14 11 6 6 5 8 15 19 9 1 3 4 1 2 3 5 2 3 3 5 7 7 5 2 4 5 6 5 18 21
7 9 8 8 9 8 9 8 8 8 8 8 9 11 13 12 1 5 9 11 11 12 7 7 8 7 0 2 3 5 4 1 2 2 3 6 5 6 6 7 9 20 13 15 16
7 8 9 9 10 9 10 9 9 8 8 9 10 12 12 8 2 2 15 12 12 12 4 5 5 2 1 2 1 3 2 2 2 3 3 1 3 5 6 5 11 20 24 21 19
5 7 9 10 11 10 10 11 10 9 9 9 11 12 12 1 0 4 15 13 12 12 8 9 8 5 4 3 1 2 2 2 3 2 3 2 4 2 9 5 10 13 17 18 19
6 5 6 9 11 11 10 10 11 9 9 9 10 10 5 1 1 5 11 11 8 8 6 7 6 5 3 3 5 3 3 5 6 4 5 4 4 2 7 13 14 13 18 20 20
8 9 8 8 10 10 12 12 11 10 8 9 10 9 1 3 2 7 7 5 5 6 6 6 3 5 3 3 1 3 5 8 6 3 4 4 2 4 6 12 16 16 16 18 20
7 8 9 8 9 10 12 13 11 9 9 9 8 4 3 2 2 7 7 4 2 3 4 3 4 5 3 4 5 4 5 9 3 4 2 6 4 8 7 12 16 17 18 19 19
7 7 9 10 9 11 12 11 8 7 10 9 6 2 2 1 2 8 7 2 6 6 4 6 3 3 3 6 3 2 4 6 6 4 1 5 2 5 10 12 17 19 19 19 20
6 7 8 10 8 11 12 11 9 7 7 8 2 2 4 1 2 5 4 3 7 6 6 7 0 0 9 5 6 7 4 8 8 1 2 0 2 7 12 13 15 18 19 19 21
4 6 8 9 10 12 12 7 6 6 5 5 4 1 3 2 3 5 5 5 4 7 7 2 5 5 6 6 1 5 5 7 7 5 3 3 5 4 9 13 17 18 20 19 21
3 3 7 9 9 8 7 3 3 1 5 1 1 1 2 6 1 6 4 6 2 2 2 3 9 3 8 5 2 4 5 8 4 3 5 7 4 1 7 11 16 17 20 20 22
1 6 8 9 6 8 2 5 4 1 6 2 3 3 2 1 4 10 11 1 3 2 5 6 3 6 8 6 6 6 4 3 12 9 5 6 2 4 7 9 16 17 21 21 24
4 4 7 8 5 4 6 6 4 9 3 2 2 2 2 3 2 6 7 4 4 4 5 6 3 6 5 4 9 5 3 3 6 9 2 9 1 4 5 11 19 16 17 19 21
7 4 6 4 2 0 5 5 6 3 2 3 2 1 0 1 1 1 3 2 3 2 2 3 3 4 3 2 6 5 2 12 11 4 2 3 5 5 13 18 23 21 23 22 23
10 8 7 5 3 3 2 4 4 2 4 3 1 2 1 3 1 2 3 2 3 1 4 1 4 5 4 4 8 9 15 13 6 1 2 2 4 6 8 20 26 24 24 23 22
15 10 5 4 3 2 2 4 2 2 6 1 2 2 2 2 1 0 4 6 2 1 1 2 2 3 2 8 2 12 6 4 1 3 4 5 6 5 7 10 22 19 22 22 22
16 12 6 2 4 4 2 0 1 4 1 1 1 2 1 1 2 2 4 7 2 4 4 3 2 2 3 6 7 12 7 5 9 7 5 1 7 2 6 7 7 17 21 21 20
17 12 7 3 4 4 2 3 4 2 2 2 1 2 3 1 0 0 4 2 4 3 4 2 4 4 6 3 3 5 5 6 3 3 6 5 3 4 2 6 9 10 13 19 21
20 2 3 2 4 1 2 2 4 3 4 4 0 4 3 1 1 1 3 3 1 1 3 4 0 2 1 2 3 6 6 4 4 3 2 1 4 4 13 13 16 19 19 21 22
6 4 2 2 2 2 3 5 4 2 3 3 7 2 3 3 2 2 2 0 2 1 1 3 3 0 1 2 6 6 2 5 5 5 6 5 2 5 15 17 17 21 19 20 20
4 4 2 1 2 2 4 5 3 3 1 5 5 5 2 2 4 2 1 1 1 1 3 3 3 4 4 5 1 5 5 4 3 4 5 3 4 6 5 6 8 13 15 16 18
3 3 2 2 3 1 3 4 3 4 3 2 0 3 2 3 1 2 3 1 4 3 2 1 4 2 2 2 1 2 2 4 6 7 2 4 6 3 5 5 2 10 11 13 13
4 4 1 1 4 3 1 2 2 4 4 5 6 2 1 4 1 3 4 1 2 0 4 3 1 3 8 7 5 2 3 4 4 4 4 4 7 4 3 4 4 4 10 12 14
5 5 1 1 1 4 6 4 5 2 2 4 2 3 2 2 2 3 3 2 1 2 4 2 3 6 7 8 5 1 1 4 5 3 3 7 6 7 10 9 8 7 9 10 11
3 4 6 6 5 4 5 8 6 6 2 0 3 5 6 4 2 5 3 2 1 3 3 4 2 2 4 2 3 5 4 5 5 5 5 5 3 6 7 5 5 4 8 14 13
5 6 1 3 7 10 9 8 11 6 9 5 4 12 7 5 5 8 7 5 4 3 2 3 2 3 4 3 2 4 6 8 5 4 10 7 10 5 6 4 6 4 5 9 14
2 1 4 7 5 6 7 7 10 12 3 2 11 5 7 3 7 7 7 7 5 6 4 3 4 3 5 3 4 5 8 9 4 4 6 4 7 2 6 6 4 5 4 6 8
Wind_Direction
10 13 16 5 359 351 344 337 332 332 327 326 323 321 321 326 325 359 28 299 324 326 331 324 287 274 311 109 38 68 61 55 8 349 284 350 349 4 236 309 20 13 308 307 315
7 359 3 2 356 349 343 337 328 324 325 331 329 326 330 337 264 46 340 339 327 330 341 325 317 327 220 51 22 72 91 65 315 342 347 354 56 331 29 10 335 326 327 317 308
358 2 351 360 357 350 344 338 326 316 315 320 326 327 336 342 327 332 348 342 330 328 288 287 287 233 48 75 54 351 134 304 358 322 355 193 40 30 17 357 346 325 326 326 323
5 358 350 1 353 348 340 336 327 315 308 309 316 322 326 350 245 312 347 339 327 320 316 5 357 23 70 21 25 74 307 33 272 255 300 120 115 66 61 315 318 322 321 323 328
339 349 0 3 351 342 337 326 322 312 317 313 314 328 359 13 289 319 353 335 331 348 26 11 38 19 12 327 336 182 293 292 271 238 120 145 92 180 31 344 328 323 338 331 324
332 345 348 9 350 342 335 323 319 298 302 316 317 328 195 254 264 353 346 340 342 357 18 24 346 293 252 267 201 228 283 274 276 187 98 109 73 73 355 326 354 342 335 332 330
328 346 344 354 348 345 336 328 324 297 294 302 313 310 273 224 58 6 7 288 258 346 332 315 321 14 318 291 213 217 303 317 262 188 67 166 85 18 290 329 337 343 340 334 333
325 339 340 336 359 346 333 328 327 299 293 288 304 304 254 226 77 18 353 14 343 272 255 277 282 258 280 295 314 281 54 9 296 172 193 81 312 34 334 334 333 343 342 337 334
317 332 339 330 2 347 331 323 308 303 278 286 295 170 301 112 352 348 27 311 299 280 266 262 286 61 349 30 25 11 309 323 312 144 132 21 55 30 2 353 341 345 343 339 333
314 333 332 332 359 359 333 288 299 320 272 250 259 350 48 314 323 336 322 308 284 327 324 169 53 58 13 42 248 280 306 285 273 315 345 80 75 51 10 9 349 347 346 342 337
278 351 341 341 357 357 12 6 11 52 39 120 261 270 38 306 312 346 355 320 244 247 253 64 65 7 295 297 193 275 278 290 307 279 338 89 94 306 1 9 359 349 348 345 340
67 9 357 342 345 346 42 64 53 274 309 212 144 122 162 63 333 0 346 44 6 60 10 35 64 305 312 43 23 321 295 327 298 321 317 138 148 230 18 5 10 353 348 345 340
118 18 355 337 315 60 80 69 2 17 258 179 75 80 300 6 89 317 6 302 61 53 33 119 333 341 334 23 358 326 161 311 280 306 292 108 295 319 337 355 3 4 351 351 346
133 75 347 343 317 149 69 11 28 29 299 176 193 19 351 18 11 268 328 257 49 80 34 109 4 3 352 352 27 297 225 321 300 9 243 110 278 9 335 349 357 356 357 350 348
146 134 65 58 141 54 70 33 32 91 290 56 138 320 268 90 42 6 346 3 83 342 83 199 6 13 8 311 316 256 311 283 262 263 350 319 66 305 356 353 342 352 351 350 347
160 149 140 68 65 68 75 85 91 77 249 115 146 161 154 75 37 109 19 29 55 14 49 158 102 79 286 298 283 318 343 14 144 115 34 255 124 346 341 316 331 346 345 346 346
160 150 86 48 150 156 141 18 73 211 40 191 177 204 143 113 106 50 57 12 73 75 356 337 69 87 2 360 350 358 32 356 8 10 225 326 56 269 291 319 302 333 338 343 349
139 107 66 70 129 152 132 69 208 172 94 315 330 269 258 130 93 287 140 68 31 27 84 110 344 21 333 98 252 337 67 126 225 317 293 347 131 237 194 337 304 343 338 347 352
121 78 94 131 144 159 120 159 232 155 135 151 20 231 242 196 143 50 60 134 137 58 142 114 163 118 68 359 54 327 40 182 96 237 328 184 15 313 357 358 350 356 1 352 352
118 114 65 139 194 132 86 234 197 110 134 153 194 276 245 183 114 90 205 118 146 17 323 221 62 261 152 46 16 99 220 37 4 35 337 326 84 262 337 347 347 355 359 349 350
89 114 118 186 242 79 195 208 143 87 147 160 198 191 327 156 157 159 224 322 84 131 69 123 91 284 46 24 38 357 5 21 121 123 157 297 264 220 252 276 317 338 348 349 345
141 123 121 159 151 209 186 159 116 144 77 106 39 31 258 152 118 127 184 57 164 148 142 165 128 98 192 330 346 341 134 105 116 280 215 164 276 232 210 259 217 321 342 347 343
103 102 91 275 178 188 103 102 125 154 177 170 185 210 91 152 105 124 99 89 92 128 172 204 351 31 351 351 355 204 145 134 121 84 234 115 267 168 257 320 0 331 332 354 342
123 131 140 241 270 155 152 183 158 74 131 202 113 103 111 124 64 151 139 203 127 84 111 83 110 154 189 206 143 65 15 115 125 116 227 229 287 323 340 345 346 342 325 351 347
176 177 170 177 216 190 161 147 144 174 218 276 157 238 160 133 78 181 132 110 103 162 55 113 158 111 272 243 157 193 173 170 155 211 163 241 245 279 278 288 301 293 324 350 360
147 151 137 137 133 148 174 202 171 150 161 189 212 189 206 162 191 183 133 184 189 89 82 335 153 96 317 138 60 264 227 191 200 243 259 271 291 212 254 275 3 2 352 347 346
191 351 111 156 142 141 194 174 183 136 189 252 180 151 148 130 90 73 80 87 118 140 146 116 115 89 281 23 9 333 227 183 198 213 169 210 229 300 330 3 353 338 9 322 329